TimeEDT,TemperatureF,Dew PointF,Humidity,Sea Level PressureIn,VisibilityMPH,Wind Direction,Wind SpeedMPH,Gust SpeedMPH,PrecipitationIn,Events,Conditions,WindDirDegrees,DateUTC
12:51 AM,52.0,43.0,71,30.03,10.0,North,4.6,-,N/A,,Mostly Cloudy,10,2012-10-28 04:51:00
1:51 AM,51.1,39.9,66,30.03,10.0,North,4.6,-,N/A,,Clear,350,2012-10-28 05:51:00
2:51 AM,51.1,37.0,59,30.02,10.0,NNE,4.6,-,N/A,,Clear,20,2012-10-28 06:51:00
3:51 AM,51.1,39.9,66,30.01,10.0,NNE,4.6,-,N/A,,Clear,30,2012-10-28 07:51:00
4:51 AM,50.0,42.1,74,30.01,10.0,NNE,3.5,-,N/A,,Partly Cloudy,30,2012-10-28 08:51:00
5:05 AM,51.8,42.8,71,30.02,10.0,NNE,5.8,-,N/A,,Mostly Cloudy,20,2012-10-28 09:05:00
5:44 AM,50.0,42.8,76,30.01,10.0,NNE,4.6,-,N/A,,Scattered Clouds,20,2012-10-28 09:44:00
5:51 AM,50.0,43.0,77,30.00,10.0,NNE,4.6,-,N/A,,Partly Cloudy,20,2012-10-28 09:51:00
6:51 AM,50.0,44.1,80,30.01,10.0,NNE,4.6,-,N/A,,Clear,20,2012-10-28 10:51:00
7:51 AM,50.0,45.0,83,30.03,10.0,NNE,6.9,-,N/A,,Mostly Cloudy,30,2012-10-28 11:51:00
8:18 AM,51.8,46.4,82,30.03,10.0,NNE,6.9,-,N/A,,Overcast,30,2012-10-28 12:18:00
8:51 AM,52.0,46.9,83,30.04,10.0,ENE,5.8,-,N/A,,Overcast,60,2012-10-28 12:51:00
9:06 AM,51.8,46.4,82,30.04,10.0,NE,5.8,-,N/A,,Overcast,40,2012-10-28 13:06:00
9:51 AM,52.0,46.9,83,30.04,10.0,Variable,6.9,-,N/A,,Overcast,0,2012-10-28 13:51:00
10:51 AM,51.1,48.0,89,30.03,3.0,NE,8.1,-,N/A,,Overcast,40,2012-10-28 14:51:00
11:02 AM,51.8,48.2,88,30.03,5.0,NNE,9.2,-,N/A,,Overcast,20,2012-10-28 15:02:00
12:35 PM,51.8,48.2,88,30.00,7.0,NE,9.2,-,N/A,,Overcast,40,2012-10-28 16:35:00
12:51 PM,51.1,48.0,89,30.00,3.0,NE,5.8,-,N/A,,Overcast,40,2012-10-28 16:51:00
1:09 PM,51.8,48.2,88,30.00,2.5,NNE,5.8,-,N/A,,Overcast,30,2012-10-28 17:09:00
1:51 PM,50.0,48.0,93,29.98,3.0,NNE,8.1,-,N/A,,Overcast,30,2012-10-28 17:51:00
2:51 PM,50.0,48.0,93,29.95,7.0,NNE,9.2,-,N/A,,Overcast,30,2012-10-28 18:51:00
3:51 PM,51.1,46.9,86,29.95,10.0,NE,8.1,-,N/A,,Overcast,40,2012-10-28 19:51:00
4:02 PM,51.8,46.4,82,29.95,10.0,NNE,9.2,-,N/A,,Overcast,20,2012-10-28 20:02:00
4:51 PM,51.1,46.0,83,29.93,10.0,NE,10.4,-,N/A,,Overcast,40,2012-10-28 20:51:00
5:51 PM,50.0,45.0,83,29.93,10.0,NE,8.1,-,N/A,,Overcast,40,2012-10-28 21:51:00
6:51 PM,50.0,44.1,80,29.94,10.0,NE,9.2,17.3,N/A,,Overcast,40,2012-10-28 22:51:00
7:18 PM,50.0,44.6,82,29.93,10.0,NE,6.9,-,N/A,,Overcast,40,2012-10-28 23:18:00
7:49 PM,50.0,44.6,82,29.93,10.0,NNE,5.8,-,N/A,,Overcast,30,2012-10-28 23:49:00
7:51 PM,50.0,44.1,80,29.93,10.0,NNE,5.8,-,N/A,,Overcast,20,2012-10-28 23:51:00
8:51 PM,50.0,44.1,80,29.92,10.0,NNE,6.9,16.1,N/A,,Overcast,30,2012-10-29 00:51:00
9:51 PM,50.0,45.0,83,29.89,10.0,NNE,11.5,19.6,N/A,,Overcast,20,2012-10-29 01:51:00
10:04 PM,51.8,44.6,76,29.90,10.0,NE,9.2,18.4,N/A,,Overcast,40,2012-10-29 02:04:00
10:51 PM,50.0,46.9,89,29.88,4.0,NNE,8.1,16.1,N/A,,Overcast,30,2012-10-29 02:51:00
11:51 PM,48.9,46.9,93,29.86,2.5,NNE,9.2,-,N/A,,Overcast,20,2012-10-29 03:51:00